Flag for U.S.A. Weather past 2 weeks in Sidney, Montana, U.S.A.

Now
34 °F

Sunny.


Feels Like: 26 °F
Forecast: 19 / 46 °F
Wind: 9 mph from South

Location: Sidney-Richland

Current Time: Mar 6, 2015 at 9:53:58 AM

Latest Report: Mar 6, 2015 at 9:35 AM


Visibility: 10 mi

Pressure: 30.07 "Hg

Humidity: 60%

Dew point: 21 °F

Location of SidneyLocation

Historic Weather in Sidney — Graph

°F

Sidney temperature yesterday

Maximum temperature yesterday: 45 °F (at 2:35 PM)
Minimum temperature yesterday: 0 °F (at 12:55 AM)
Average temperature yesterday: 23 °F

Past Weeks' High & Low Weather Summary

 TemperatureHumidityPressure
High45 °F (Mar 5, 2:35 PM)100% (Feb 22, 1:15 AM)30.70 "Hg (Feb 22, 1:15 AM)
Low-13 °F (Feb 22, 4:55 AM)19% (Feb 22, 2:15 PM)29.70 "Hg (Feb 24, 6:55 PM)
Average15 °F64%30.19 "Hg
* Reported Feb 19 8:15 AM — Mar 6 8:35 AM, Sidney, Weather by CustomWeather, © 2015

Note: Actual official high and low records may vary slightly from our data, if they occured in-between our weather recording intervals... More about our weather records

Advertising

Sidney weather history for previous 24 hours

 ConditionsComfort  
Time TempWeatherWind HumidityBarometerVisibility
8:35 AM
Fri, Mar 6
28 °FPassing clouds.8 mph69%30.09 "Hg10 mi
8:15 AM28 °FSunny.8 mph69%30.09 "Hg10 mi
7:55 AM27 °FSunny.5 mph74%30.08 "Hg10 mi
7:35 AM25 °FSunny.No wind80%30.09 "Hg10 mi
7:15 AM25 °FPassing clouds.No wind80%30.09 "Hg10 mi
6:55 AM23 °FPartly sunny.No wind86%30.09 "Hg10 mi
6:35 AM21 °FOvercast.No wind86%30.09 "Hg10 mi
6:15 AM23 °FOvercast.No wind86%30.10 "Hg10 mi
5:55 AM23 °FOvercast.No wind80%30.10 "Hg10 mi
5:35 AM23 °FOvercast.No wind80%30.10 "Hg10 mi
5:15 AM23 °FOvercast.No wind80%30.10 "Hg10 mi
4:55 AM23 °FOvercast.No wind86%30.09 "Hg10 mi
4:35 AM23 °FOvercast.No wind80%30.10 "Hg10 mi
4:15 AM21 °FPassing clouds.No wind86%30.09 "Hg10 mi
3:55 AM23 °FClear.No wind80%30.09 "Hg10 mi
3:35 AM21 °FClear.No wind86%30.09 "Hg10 mi
3:15 AM25 °FClear.5 mph69%30.09 "Hg10 mi
2:55 AM27 °FClear.No wind74%30.09 "Hg10 mi
2:35 AM25 °FClear.7 mph74%30.09 "Hg10 mi
2:15 AM25 °FClear.9 mph74%30.09 "Hg10 mi
1:55 AM25 °FClear.7 mph74%30.09 "Hg10 mi
1:35 AM25 °FClear.No wind74%30.09 "Hg10 mi
1:15 AM25 °FClear.No wind80%30.09 "Hg10 mi
12:55 AM27 °FClear.7 mph69%30.08 "Hg10 mi
12:35 AM27 °FClear.9 mph80%30.07 "Hg10 mi
12:15 AM28 °FClear.10 mph64%30.07 "Hg10 mi
11:55 PM
Thu, Mar 5
30 °FClear.9 mph64%30.07 "Hg10 mi
11:35 PM27 °FPassing clouds.9 mph69%30.07 "Hg10 mi
11:15 PM28 °FClear.8 mph64%30.07 "Hg10 mi
10:55 PM28 °FClear.9 mph64%30.08 "Hg10 mi
10:35 PM30 °FClear.8 mph59%30.07 "Hg10 mi
10:15 PM30 °FClear.10 mph59%30.07 "Hg10 mi
9:55 PM30 °FPassing clouds.8 mph59%30.07 "Hg10 mi
9:35 PM34 °FOvercast.7 mph56%30.07 "Hg10 mi
9:15 PM34 °FOvercast.8 mph51%30.07 "Hg10 mi
8:55 PM36 °FOvercast.7 mph48%30.07 "Hg10 mi
8:35 PM37 °FOvercast.5 mph45%30.06 "Hg10 mi
7:55 PM36 °FOvercast.7 mph48%30.05 "Hg10 mi
7:35 PM36 °FPassing clouds.9 mph48%30.05 "Hg10 mi
7:15 PM36 °FPassing clouds.9 mph48%30.06 "Hg10 mi
6:55 PM30 °FPassing clouds.7 mph59%30.06 "Hg10 mi
6:35 PM30 °FPassing clouds.6 mph59%30.07 "Hg10 mi
6:15 PM32 °FClear.5 mph51%30.07 "Hg10 mi
5:55 PM34 °FClear.7 mph48%30.07 "Hg10 mi
5:35 PM34 °FSunny.6 mph48%30.07 "Hg10 mi
4:55 PM43 °FSunny.3 mph34%30.08 "Hg10 mi
4:35 PM45 °FSunny.9 mph31%30.08 "Hg10 mi
4:15 PM45 °FSunny.12 mph31%30.07 "Hg10 mi
3:55 PM45 °FSunny.15 mph31%30.07 "Hg10 mi
3:35 PM45 °FSunny.15 mph29%30.06 "Hg10 mi
2:55 PM45 °FSunny.15 mph29%30.06 "Hg10 mi
2:35 PM45 °FSunny.16 mph27%30.06 "Hg10 mi
1:55 PM43 °FSunny.13 mph29%30.06 "Hg10 mi
1:35 PM41 °FSunny.14 mph28%30.08 "Hg10 mi
12:55 PM39 °FSunny.14 mph28%30.08 "Hg10 mi
12:35 PM39 °FSunny.13 mph28%30.09 "Hg10 mi
12:15 PM37 °FSunny.13 mph33%30.10 "Hg10 mi
11:55 AM37 °FSunny.14 mph33%30.10 "Hg10 mi
11:35 AM36 °FSunny.13 mph32%30.10 "Hg10 mi
10:55 AM32 °FSunny.12 mph37%30.10 "Hg10 mi
10:35 AM30 °FSunny.13 mph40%30.10 "Hg10 mi
10:15 AM30 °FSunny.14 mph40%30.10 "Hg10 mi
9:55 AM30 °FSunny.12 mph40%30.09 "Hg10 mi
9:35 AM28 °FSunny.13 mph51%30.09 "Hg10 mi
9:15 AM21 °FSunny.8 mph63%30.09 "Hg10 mi
Weather by CustomWeather, © 2015

See weather overviewHow to use our weather pages